World > North America > United States > Mississippi > Amory   City of Amory, Mississippi

Amory, MS Hourly Weather Conditions

Feedback E-mail the Weather

Quick WX

Amory, MS Weather Maps

°F °C°F °C
Amory Weather Map
UTC Time: 2/2/2023, 17:40
Your Time:

Amory, MS Regional Weather

Expires:202302021800;;682663
ASUS44 KJAN 021710
RWRMS 

MISSISSIPPI HOURLY WEATHER ROUNDUP
NATIONAL WEATHER SERVICE JACKSON MS
1100 AM CST THU FEB 02 2023

NOTE: "FAIR: INDICATES FEW OR NO CLOUDS BELOW 12,000 FEET WITH NO
SIGNIFICANT WEATHER AND/OR OBSTRUCTIONS TO VISIBILITY.


MSZ003>006-009-014>017-022>024-029>033-037>039-021800-
NORTHEAST MISSISSIPPI
  
CITY           SKY/WX    TMP DP  RH WIND       PRES   REMARKS
ABERDEEN       LGT RAIN  37  37 100 N3        30.28S                  
COLUMBUS AFB   LGT RAIN  39  37  94 NW6       30.22F WCI  34          
GOLDN TRIANGLE LGT RAIN  39  38  96 NW8       30.27F WCI  33          
IUKA           CLOUDY    34  34 100 CALM      30.26R                  
LOUISVILLE     LGT RAIN  37  37 100 NE5       30.23F FOG     WCI  34  
STARKVILLE     LGT RAIN  37  37 100 NE6       30.23R FOG     WCI  33  
TUPELO         RAIN      37  34  89 N7        30.28R FOG     WCI  32  
$$


SKY/WX - Weather  TMP - Temperature  DP - Dew Point  RH - Humidity
WIND - Wind Direction/Speed PRES - Barometric Pressure VSB - Visibility
WCI - Wind Chill Index E13G22 Wind - East Wind 13 mph/Gusts of 22 mph

Trending Headlines

Trending Entertainment Headlines

Amory Radar Loop

Use the map search tool if you want to place a location marker on the radar map...

Amory Quick Facts

National Two Day Weather Forecast


E-mail the Amory Weather Forecast

Voice your opinion or tell us about page issues...